Temp_Advection
nan nan nan nan nan nan nan nan nan nan nan nan nan nan nan nan nan nan nan nan nan nan nan nan nan nan nan nan nan nan nan nan nan nan nan nan nan nan nan nan nan nan nan
nan -0 -0 -0 -0 -0 -0 -0 -0 -0 0 0 -0 0 0 -0 -0 0 0 -0 0 0 0 0 0 0 -0 0 0 -0 -0 -0 -0 -1 -2 -1 -1 -1 -0 -0 -0 -0 nan
nan -0 -0 -0 -0 -0 -0 -0 -0 -0 0 0 0 0 -0 -0 0 0 -0 0 0 0 0 0 0 0 -0 -0 -0 -0 -0 -0 -0 -1 -1 -1 -1 -1 -0 -0 -1 -0 nan
nan -0 -0 -0 -0 -0 -0 -0 -0 -0 -0 -0 -0 0 -0 0 0 0 0 0 0 0 0 0 1 0 0 -0 -0 -0 -0 -0 -0 -1 -1 -1 -1 -1 -0 -0 -1 -0 nan
nan -0 -0 -0 -0 -0 -0 -0 -0 -0 0 0 -0 -0 -0 -0 0 0 0 0 0 0 0 1 1 1 0 -0 -0 -0 -0 -0 -0 -0 -0 -1 -1 -1 -1 -0 -0 -0 nan
nan 0 0 0 0 -0 -0 -0 -0 -0 -0 0 0 0 -0 0 0 -0 -0 0 0 0 0 0 0 0 1 0 -0 0 -0 -0 -0 -0 -0 -0 -1 -0 -0 -1 -0 -0 nan
nan 0 0 0 0 -0 -0 -0 -0 0 -0 -0 0 0 0 -0 -0 -0 -0 0 0 0 0 -0 -0 -0 0 0 -0 0 -0 -0 -0 -0 -0 -0 -0 -0 -0 -0 -0 -0 nan
nan -0 -0 -0 -0 -0 0 0 -0 -0 0 -0 0 0 0 -0 -0 -0 -0 -0 0 0 0 0 -0 -0 0 -0 -0 -0 -0 -0 -0 -0 -0 -0 -0 -0 0 -0 -0 -0 nan
nan -0 0 -0 -0 -0 -0 -0 -0 -0 0 0 0 -0 -0 -0 -0 -0 -0 -0 -0 0 0 0 0 -0 -0 0 -0 -0 -0 -0 -0 0 -0 -0 -1 -0 -0 -0 -0 0 nan
nan 0 0 0 0 -0 -0 -0 -0 0 0 0 0 0 0 0 -0 -0 -0 -0 -0 -0 -0 0 0 0 -0 -0 -0 -0 -0 -1 -0 -0 0 0 -0 -1 -0 -0 -0 0 nan
nan 0 0 1 0 0 -0 -0 -0 -0 0 0 0 0 0 -0 -0 -0 -0 -0 -0 -0 -0 -0 0 -0 0 -0 -0 -0 -0 -0 -0 -0 -0 -0 0 -0 -0 -0 0 0 nan
nan 0 0 0 0 0 -0 -0 0 -0 0 0 0 0 0 -0 -0 -0 -0 0 0 0 0 0 0 0 0 0 -0 -0 -0 -0 -0 -0 -0 -0 -0 -0 -0 -0 -0 -0 nan
nan -0 -0 -0 0 0 0 0 0 0 0 0 0 0 0 0 -0 -0 -0 -0 0 0 0 0 0 0 0 0 0 -0 -0 -0 -0 -0 -0 -0 -0 -0 -0 -0 -0 -0 nan
nan 0 -0 -0 -0 0 0 0 0 0 0 0 0 0 0 0 0 -0 -0 -0 -0 0 0 0 0 0 0 0 0 0 -0 -0 -0 -0 -0 -0 0 0 0 0 -0 -0 nan
nan 0 -0 -0 -0 0 0 0 0 0 0 0 0 0 0 0 0 0 -0 -0 -0 -0 -0 0 0 0 0 0 0 0 0 0 -0 -0 -0 -0 -0 -0 -0 -0 0 0 nan
nan 0 0 -0 -0 0 0 0 0 0 0 0 -0 0 0 0 0 0 0 -0 -0 -0 -0 -0 0 -0 -0 -0 -0 0 0 0 -0 -0 -0 -0 -0 -0 -0 -0 -0 -0 nan
nan -0 0 0 0 0 0 0 0 0 0 0 -0 -0 0 0 0 0 0 0 -0 -0 -0 -0 -0 -0 0 0 -0 -0 -0 -0 0 -0 -0 -0 -0 -0 -0 -0 -0 -0 nan
nan -0 -0 0 0 0 0 0 0 0 0 0 0 -0 0 0 0 0 0 0 0 -0 -0 -0 -0 -0 -0 0 0 0 -0 -0 0 0 -0 -0 -0 -0 -0 -0 -0 -0 nan
nan 0 -0 0 0 0 0 0 0 0 0 0 0 0 -0 0 0 0 0 0 0 0 -0 -0 -0 -0 0 0 0 0 0 0 0 0 -0 -0 -0 -0 -0 -0 -0 -0 nan
nan -0 0 -0 0 0 0 0 0 0 0 0 0 0 0 -0 0 0 0 0 0 0 0 0 0 -0 0 0 0 0 0 0 0 0 0 0 -0 -0 -0 -0 -0 -0 nan
nan -0 -0 -0 0 1 1 0 0 0 0 0 0 0 0 0 0 0 0 0 -0 0 0 0 0 0 0 -0 -0 -0 0 0 -0 -0 -0 0 0 0 0 -0 -0 -0 nan
nan -0 -0 -1 0 1 0 0 0 0 0 0 0 0 0 0 0 0 0 0 0 0 0 0 0 0 0 0 -0 -0 -0 -0 -0 -0 -0 -0 -0 -0 -0 0 0 -0 nan
nan -0 -0 -0 -0 0 0 0 0 0 0 0 0 0 0 0 0 0 0 0 0 0 0 0 0 0 0 0 0 0 0 -0 -0 -0 -0 -0 -0 -0 -0 -0 -0 -0 nan
nan -0 -0 -0 -0 0 0 0 0 0 0 0 0 0 0 0 0 0 0 0 0 0 0 0 0 0 0 0 0 0 0 0 0 -0 -0 -0 -0 -0 -0 -0 -0 -0 nan
nan -0 -0 -0 -0 0 1 0 0 0 -0 0 1 1 1 0 0 0 0 0 0 0 0 0 0 0 0 0 0 0 0 0 0 0 -0 -0 -0 -0 -0 -0 -0 -0 nan
nan nan nan nan nan nan nan nan nan nan nan nan nan nan nan nan nan nan nan nan nan nan nan nan nan nan nan nan nan nan nan nan nan nan nan nan nan nan nan nan nan nan nan
Wind_Speed
15 16 17 18 23 28 25 22 22 25 22 24 26 28 27 25 16 15 16 21 22 23 25 27 28 28 31 34 36 36 35 31 34 42 38 38 36 29 23 22 23 23 25
14 15 17 22 25 20 20 25 25 29 23 21 23 24 22 22 16 15 18 22 24 25 28 31 31 32 37 36 32 31 33 31 31 33 35 34 33 27 21 25 26 27 24
13 16 21 24 21 21 24 27 30 30 23 18 20 18 19 14 12 16 22 22 24 26 31 32 35 35 35 34 32 32 32 30 25 24 30 29 28 24 25 25 25 25 23
16 20 23 22 21 24 25 26 31 27 21 16 20 20 18 15 17 21 19 21 25 30 33 34 34 33 32 31 30 31 29 27 27 27 26 27 22 21 21 24 23 23 25
19 23 21 20 20 22 24 27 31 23 20 19 21 17 15 18 20 15 20 25 31 33 33 32 32 31 26 26 26 28 29 29 27 27 26 27 24 21 21 23 19 20 20
22 21 21 21 19 23 25 31 26 20 20 18 15 18 14 16 12 22 25 30 31 30 31 32 30 27 24 21 23 22 21 23 27 25 26 27 28 25 22 19 19 18 19
21 20 20 19 22 24 28 25 22 20 18 18 15 13 11 13 22 22 28 27 26 28 30 26 24 23 21 20 17 21 22 23 20 19 21 22 26 24 24 26 16 13 17
19 21 19 20 23 28 26 22 21 20 20 15 14 9 15 20 21 26 25 24 26 27 24 21 22 21 19 18 25 25 25 23 21 21 22 23 22 18 23 24 23 21 22
21 20 19 22 27 26 22 22 21 16 16 18 12 16 17 20 23 22 21 22 24 24 21 19 19 19 18 20 21 21 20 18 16 16 17 18 20 24 20 18 20 22 20
19 20 23 25 25 22 21 22 15 14 17 14 14 14 19 20 19 19 20 22 24 23 22 20 19 18 17 18 20 22 20 22 21 19 17 16 17 20 23 19 20 17 16
21 24 27 24 21 20 21 18 15 16 16 13 14 17 19 18 17 17 20 20 22 22 22 22 19 18 18 18 17 16 19 20 16 14 12 11 10 10 11 18 23 24 24
25 27 27 21 18 19 19 16 15 14 13 13 15 16 16 15 16 17 19 19 20 21 21 20 19 19 20 18 16 14 16 17 15 14 13 12 11 10 9 9 11 13 15
25 25 24 16 19 21 17 16 15 14 14 14 16 16 14 13 15 17 19 17 20 20 20 18 17 19 19 15 12 14 16 14 13 12 12 12 12 11 11 10 10 11 12
24 24 21 18 20 21 16 14 14 13 15 15 16 15 13 13 14 16 17 18 19 19 19 18 17 17 16 15 13 13 14 14 13 13 13 12 10 8 8 7 7 8 9
21 21 20 19 18 18 13 11 10 12 15 16 15 13 12 12 13 15 15 17 19 19 18 17 15 16 16 16 14 14 15 13 10 12 12 11 10 10 10 10 9 5 1
21 19 20 18 14 14 12 11 12 14 16 14 12 12 12 13 13 13 14 16 17 17 16 16 16 17 17 17 18 17 17 14 10 11 12 12 11 12 12 10 8 7 7
18 19 19 18 14 13 13 15 16 13 15 14 13 13 13 12 12 12 13 15 16 15 14 14 15 16 16 16 16 17 18 17 14 10 11 11 11 10 11 10 9 7 5
19 19 19 18 15 17 17 18 17 15 15 15 14 12 12 11 11 12 13 14 14 14 13 13 13 14 15 15 16 16 16 16 14 10 10 11 10 10 9 9 9 9 8
20 20 19 19 16 19 19 16 17 17 17 17 17 14 14 12 12 12 12 13 14 13 13 13 12 12 12 13 14 14 15 16 15 13 12 11 10 9 8 9 8 9 9
19 19 21 20 17 19 18 17 18 19 18 18 18 16 13 14 14 12 12 13 13 14 13 13 13 12 12 12 12 13 13 13 14 14 13 11 12 11 10 9 10 10 10
25 21 22 22 20 18 17 17 18 18 16 18 17 15 16 16 14 14 12 13 13 13 13 13 13 12 12 12 12 12 12 13 14 14 14 13 12 11 10 10 10 10 10
20 23 24 21 19 20 19 16 16 16 17 20 20 20 16 18 17 15 16 14 14 14 13 13 13 13 14 12 12 12 12 12 13 13 13 12 12 12 11 10 9 9 9
22 23 21 19 19 20 18 17 17 17 18 19 20 20 20 20 17 17 17 16 16 15 15 14 13 13 14 13 13 13 12 12 13 12 12 11 11 11 11 11 10 9 8
23 21 20 19 18 18 21 21 20 20 21 21 20 22 22 23 22 20 18 18 17 17 16 15 14 13 13 13 14 14 13 12 12 12 12 11 11 10 10 9 9 9 8
23 22 20 19 19 20 23 24 25 26 26 27 27 24 25 26 26 24 22 20 21 19 17 16 14 14 13 13 14 14 13 11 11 11 11 11 11 10 9 8 8 8 7
22 21 19 19 19 20 23 26 28 29 30 29 30 30 28 26 27 26 25 24 22 20 17 16 15 14 14 13 13 13 12 10 10 10 9 9 9 9 8 8 7 8 9
Wind_Direction
340 336 331 333 335 333 330 335 334 334 319 304 306 291 295 301 286 279 301 316 311 316 312 311 307 300 297 298 299 297 295 295 292 292 290 285 281 278 275 268 271 273 276
325 324 324 328 334 335 333 340 334 332 324 308 305 297 294 294 282 286 308 302 305 309 309 301 298 299 300 300 299 298 298 298 294 292 291 288 285 278 260 260 261 270 277
312 319 329 337 338 338 338 334 334 333 318 308 299 290 293 287 277 293 295 295 300 303 302 302 302 303 302 301 301 299 301 302 299 294 294 294 290 288 262 258 260 267 271
316 329 334 338 336 335 333 330 333 330 324 313 296 293 294 271 288 293 292 300 300 302 302 301 301 301 301 302 304 302 301 300 296 295 287 294 297 290 274 256 259 264 269
323 331 332 328 321 325 329 330 332 325 317 306 299 291 282 283 290 291 303 305 307 305 305 305 305 304 300 297 296 296 296 295 293 292 293 291 293 291 287 272 257 262 264
326 325 315 308 311 321 325 327 328 319 316 316 311 279 289 291 300 308 309 310 308 310 312 312 310 310 310 305 302 301 294 293 290 286 284 285 287 283 283 280 259 260 272
319 312 311 305 315 321 325 324 322 314 314 314 309 300 296 307 309 309 310 311 316 319 319 320 320 320 316 318 325 327 305 301 295 289 288 290 286 281 278 281 280 262 267
309 314 316 315 319 321 321 321 321 308 306 304 301 289 302 307 309 312 316 322 325 326 328 326 325 325 330 327 323 313 312 303 296 290 291 288 283 282 270 272 271 271 269
317 320 319 318 319 320 320 319 316 307 304 307 288 299 303 308 313 318 322 328 333 333 330 331 329 323 331 328 322 324 325 329 323 308 294 291 279 269 279 259 263 258 265
319 319 319 318 317 315 317 320 310 301 306 303 298 298 306 313 317 323 329 336 336 339 339 335 332 328 334 325 321 322 323 321 323 318 306 298 291 270 261 256 259 260 254
316 315 315 313 305 310 315 315 299 294 294 285 289 301 310 315 322 328 334 337 341 341 338 338 336 338 334 327 324 328 322 321 322 323 332 334 329 313 284 262 256 257 260
313 314 316 310 296 302 314 312 303 299 284 277 293 306 314 317 324 332 336 340 346 344 340 342 341 339 337 335 332 329 330 330 326 322 322 325 324 318 306 286 271 262 259
312 314 320 313 298 301 301 305 299 289 274 284 299 309 314 317 324 331 332 342 349 347 345 342 342 340 339 338 336 342 342 344 348 350 345 339 333 322 310 295 276 266 262
313 315 320 302 297 300 294 300 294 279 274 288 300 306 308 313 319 326 334 348 345 350 350 346 342 343 344 340 333 333 344 351 353 353 349 347 352 3 7 344 316 275 261
313 314 315 305 296 291 288 298 299 289 287 291 294 297 303 308 317 324 340 340 342 346 350 351 349 355 360 2 1 354 354 355 357 3 3 6 12 12 15 13 22 48 31
316 317 316 313 299 286 282 293 297 300 303 292 282 292 298 302 310 325 333 337 338 343 349 354 357 359 2 4 6 8 6 5 6 8 9 9 7 5 7 10 21 31 30
318 318 315 308 291 288 290 294 295 295 311 294 287 290 292 295 306 319 326 332 336 340 346 351 356 358 359 1 3 6 8 8 359 355 360 4 6 4 3 7 9 3 11
312 315 309 309 287 289 286 284 283 289 292 290 290 281 286 289 300 308 316 322 331 331 340 348 350 354 355 355 358 0 3 4 6 354 349 352 355 357 355 359 4 4 356
314 310 314 300 289 285 289 273 276 286 289 284 294 286 287 280 290 297 304 313 323 326 331 337 341 344 346 348 352 355 357 358 359 359 351 344 341 337 345 350 353 352 345
304 303 310 307 283 283 284 281 282 284 284 280 288 292 273 277 282 287 294 305 313 315 319 326 330 332 335 336 337 341 345 351 354 356 355 350 346 342 334 331 333 337 345
306 303 298 296 285 276 275 280 289 281 268 272 281 291 286 277 282 276 284 295 303 309 312 317 322 324 330 331 330 331 331 338 344 346 349 349 348 349 345 338 337 337 338
310 305 310 294 274 271 271 282 280 283 278 270 274 274 282 279 281 271 275 284 292 297 304 308 314 317 323 325 324 327 329 329 333 336 339 343 346 348 349 347 344 347 345
316 314 313 299 277 268 275 280 278 283 288 286 277 274 269 278 278 279 277 277 283 286 292 298 304 308 314 320 318 320 323 322 324 327 329 337 343 346 346 348 352 357 354
314 311 310 302 285 270 272 275 278 281 283 287 283 272 273 272 275 278 282 275 272 277 279 286 294 300 305 311 314 315 316 317 319 322 321 324 329 335 344 346 349 353 358
309 312 307 303 295 286 281 281 282 283 282 282 281 283 271 269 270 273 276 277 269 269 269 274 283 292 299 304 308 311 309 309 313 318 321 325 328 326 329 338 345 351 350
307 309 307 308 304 297 293 290 290 291 291 289 283 278 279 268 265 269 268 273 267 263 260 266 275 284 292 300 302 304 303 303 306 311 317 321 324 320 319 323 326 335 343
Height
1551 1549 1547 1545 1542 1538 1535 1531 1528 1524 1521 1518 1515 1512 1510 1508 1507 1505 1505 1503 1501 1498 1495 1491 1488 1485 1482 1478 1475 1471 1468 1466 1458 1450 1449 1446 1445 1446 1446 1447 1445 1444 1443
1548 1546 1544 1541 1537 1534 1530 1526 1522 1518 1514 1512 1510 1507 1506 1504 1502 1501 1500 1498 1495 1492 1490 1486 1482 1478 1474 1470 1466 1462 1459 1456 1452 1445 1440 1438 1436 1437 1439 1439 1439 1438 1437
1545 1543 1541 1537 1533 1529 1525 1522 1518 1513 1509 1505 1504 1502 1500 1499 1498 1497 1495 1493 1490 1487 1484 1479 1474 1469 1465 1461 1458 1454 1451 1447 1444 1441 1434 1433 1430 1430 1430 1431 1432 1431 1431
1541 1539 1535 1531 1527 1524 1521 1517 1513 1508 1503 1501 1499 1497 1495 1495 1494 1492 1490 1487 1485 1482 1477 1472 1467 1462 1458 1454 1450 1447 1444 1440 1438 1435 1431 1427 1425 1424 1423 1424 1425 1425 1424
1537 1533 1530 1527 1523 1520 1516 1512 1508 1504 1500 1496 1494 1492 1492 1491 1490 1487 1486 1483 1479 1474 1470 1465 1459 1455 1452 1448 1445 1441 1438 1434 1431 1428 1426 1423 1421 1420 1419 1417 1418 1419 1419
1532 1529 1525 1522 1519 1515 1511 1507 1503 1500 1497 1493 1490 1488 1488 1487 1486 1484 1480 1477 1473 1467 1461 1456 1451 1447 1443 1440 1437 1434 1432 1428 1425 1423 1420 1418 1416 1416 1414 1413 1413 1414 1414
1527 1524 1521 1518 1515 1511 1507 1502 1499 1496 1493 1491 1488 1486 1485 1484 1482 1479 1476 1471 1466 1461 1455 1449 1445 1441 1438 1434 1431 1429 1426 1423 1420 1417 1415 1413 1410 1410 1409 1408 1408 1409 1409
1522 1519 1516 1513 1509 1506 1502 1498 1495 1492 1489 1487 1485 1484 1483 1480 1478 1474 1470 1465 1461 1455 1450 1445 1441 1437 1434 1431 1428 1423 1420 1416 1414 1411 1409 1407 1405 1403 1403 1403 1403 1404 1404
1516 1513 1510 1507 1503 1500 1497 1493 1491 1488 1487 1484 1483 1481 1479 1477 1473 1469 1465 1461 1456 1451 1447 1443 1438 1434 1431 1429 1424 1419 1416 1412 1409 1406 1403 1401 1398 1397 1397 1398 1398 1398 1398
1511 1509 1506 1502 1498 1495 1492 1489 1487 1485 1483 1481 1480 1478 1476 1473 1469 1465 1461 1456 1452 1447 1443 1439 1436 1432 1428 1425 1421 1416 1412 1408 1405 1401 1398 1396 1393 1391 1392 1393 1393 1394 1395
1506 1503 1500 1496 1493 1491 1488 1485 1483 1481 1480 1478 1477 1475 1472 1469 1465 1462 1458 1454 1449 1444 1440 1436 1432 1428 1425 1422 1418 1414 1410 1405 1402 1399 1396 1393 1390 1388 1387 1387 1387 1389 1389
1501 1497 1493 1489 1488 1486 1484 1481 1480 1478 1476 1475 1473 1471 1468 1465 1462 1459 1456 1451 1447 1443 1438 1433 1429 1425 1422 1418 1414 1411 1407 1403 1400 1397 1394 1391 1389 1387 1385 1383 1383 1383 1384
1495 1491 1487 1485 1484 1482 1479 1477 1476 1474 1473 1471 1470 1467 1465 1463 1460 1456 1453 1449 1445 1441 1436 1432 1428 1424 1420 1416 1413 1409 1406 1402 1398 1395 1392 1390 1387 1384 1382 1381 1380 1380 1380
1490 1486 1482 1480 1478 1476 1474 1473 1471 1470 1469 1468 1466 1464 1462 1460 1457 1454 1450 1446 1443 1439 1435 1430 1426 1423 1419 1415 1411 1408 1405 1401 1398 1395 1392 1389 1386 1383 1381 1379 1378 1376 1377
1484 1481 1478 1475 1472 1471 1470 1469 1468 1467 1465 1463 1462 1460 1459 1457 1454 1451 1448 1444 1441 1437 1433 1429 1425 1421 1418 1414 1411 1407 1404 1400 1397 1395 1392 1389 1386 1384 1382 1380 1378 1376 1376
1478 1476 1474 1470 1468 1467 1466 1465 1464 1462 1461 1459 1458 1457 1455 1453 1451 1448 1445 1442 1439 1435 1432 1428 1424 1421 1417 1413 1410 1407 1404 1400 1397 1395 1393 1390 1387 1385 1383 1381 1379 1378 1377
1475 1472 1470 1467 1465 1464 1462 1461 1460 1459 1456 1455 1454 1453 1452 1450 1448 1445 1443 1440 1437 1434 1431 1427 1424 1420 1417 1414 1411 1407 1404 1401 1398 1396 1394 1391 1389 1387 1384 1382 1381 1379 1378
1471 1468 1465 1463 1461 1460 1458 1457 1455 1454 1452 1452 1450 1449 1448 1446 1444 1442 1440 1438 1435 1432 1429 1426 1423 1420 1417 1414 1411 1407 1405 1402 1399 1396 1394 1392 1390 1387 1385 1384 1382 1380 1379
1465 1463 1461 1458 1456 1455 1453 1452 1451 1449 1448 1447 1446 1445 1444 1442 1441 1439 1437 1435 1432 1430 1427 1424 1422 1419 1416 1413 1410 1408 1405 1402 1399 1397 1394 1392 1390 1388 1386 1384 1382 1381 1379
1460 1457 1455 1453 1451 1449 1448 1447 1445 1444 1443 1443 1441 1440 1439 1438 1437 1435 1433 1432 1429 1427 1425 1422 1420 1417 1415 1412 1410 1407 1405 1402 1400 1397 1394 1392 1389 1387 1385 1383 1381 1379 1378
1453 1450 1449 1446 1444 1444 1442 1441 1439 1438 1438 1437 1436 1436 1435 1433 1432 1431 1430 1428 1426 1424 1422 1419 1417 1415 1413 1410 1408 1406 1404 1401 1399 1396 1394 1391 1389 1387 1384 1382 1380 1378 1376
1448 1445 1441 1438 1438 1437 1435 1434 1434 1432 1431 1431 1430 1430 1429 1428 1426 1425 1424 1423 1421 1420 1418 1416 1414 1412 1410 1408 1406 1404 1402 1400 1398 1396 1393 1391 1388 1386 1384 1382 1380 1378 1376
1442 1439 1435 1433 1432 1431 1430 1429 1428 1427 1426 1425 1424 1423 1423 1422 1420 1419 1418 1418 1416 1415 1414 1412 1411 1409 1407 1405 1403 1401 1399 1398 1396 1394 1392 1390 1388 1386 1383 1381 1380 1378 1376
1437 1433 1430 1428 1426 1425 1424 1423 1422 1421 1420 1418 1417 1416 1416 1415 1414 1413 1412 1411 1410 1410 1409 1408 1406 1405 1404 1402 1400 1398 1396 1395 1393 1391 1390 1388 1386 1385 1383 1381 1380 1378 1377
1431 1427 1425 1422 1420 1419 1418 1416 1415 1414 1412 1411 1409 1408 1407 1407 1406 1405 1405 1404 1404 1403 1403 1402 1402 1401 1400 1398 1396 1395 1393 1392 1390 1389 1387 1386 1384 1383 1382 1380 1379 1378 1376
1425 1422 1419 1416 1414 1412 1411 1409 1407 1405 1403 1402 1400 1399 1398 1397 1397 1397 1397 1397 1396 1396 1396 1396 1396 1396 1395 1394 1392 1391 1390 1388 1387 1386 1385 1384 1382 1381 1380 1379 1377 1376 1375